| time (UTC) | temp F | wind direction | speed knots | gust knots | rain 1hr in | rain 24hr in | rain mn in | humidity % | barometer mb |
| 20260507083217 | 68 | 12 | 0.9 | 3.5 | 0.00 | 0.27 | 0.18 | 71 | 1016.8 |
| 20260507082004 | 68 | 257 | 0.9 | 2.6 | 0.00 | 0.27 | 0.18 | 74 | 1016.8 |
| 20260507081003 | 66 | 92 | 0.9 | 1.7 | 0.00 | 0.27 | 0.18 | 75 | 1017.0 |
| 20260507080004 | 66 | 60 | 0.9 | 2.6 | 0.00 | 0.27 | 0.18 | 77 | 1017.0 |
| 20260507075003 | 65 | 67 | 1.7 | 3.5 | 0.00 | 0.27 | 0.18 | 79 | 1017.0 |
| 20260507074004 | 64 | 53 | 1.7 | 3.5 | 0.00 | 0.27 | 0.18 | 81 | 1016.9 |
| 20260507073004 | 63 | 29 | 0.9 | 4.3 | 0.00 | 0.27 | 0.18 | 83 | 1017.0 |
| 20260507072214 | 62 | 344 | 0.9 | 4.3 | 0.00 | 0.27 | 0.18 | 85 | 1017.1 |
| 20260507071003 | 61 | 339 | 1.7 | 2.6 | 0.00 | 0.27 | 0.18 | 89 | 1017.1 |
| 20260507070216 | 61 | 341 | 1.7 | 3.5 | 0.00 | 0.27 | 0.18 | 91 | 1017.0 |
| 20260507065004 | 61 | 337 | 0.9 | 2.6 | 0.00 | 0.27 | 0.18 | 92 | 1017.0 |
| 20260507064004 | 61 | 44 | 1.7 | 3.5 | 0.00 | 0.27 | 0.18 | 95 | 1016.9 |
| 20260507063004 | 60 | 44 | 0.9 | 3.5 | 0.00 | 0.27 | 0.18 | 95 | 1016.8 |
| 20260507062003 | 60 | 33 | 0.9 | 2.6 | 0.00 | 0.27 | 0.18 | 96 | 1016.7 |
| 20260507061003 | 59 | 36 | 0.9 | 3.5 | 0.00 | 0.27 | 0.18 | 96 | 1016.6 |
| 20260507060004 | 58 | 66 | 1.7 | 3.5 | 0.00 | 0.27 | 0.18 | 96 | 1016.7 |
| 20260507055217 | 58 | 57 | 1.7 | 4.3 | 0.00 | 0.28 | 0.18 | 96 | 1016.7 |
| 20260507054003 | 57 | 54 | 0.9 | 3.5 | 0.00 | 0.29 | 0.18 | 96 | 1016.7 |
| 20260507053214 | 57 | 64 | 1.7 | 2.6 | 0.00 | 0.30 | 0.18 | 96 | 1016.6 |
| 20260507052004 | 56 | 80 | 1.7 | 2.6 | 0.00 | 0.30 | 0.18 | 96 | 1016.6 |
| 20260507051004 | 56 | 72 | 1.7 | 2.6 | 0.00 | 0.30 | 0.18 | 96 | 1016.6 |
| 20260507050005 | 56 | 62 | 1.7 | 2.6 | 0.00 | 0.30 | 0.18 | 96 | 1016.4 |
| 20260507045213 | 56 | 57 | 1.7 | 3.5 | 0.00 | 0.30 | 0.18 | 96 | 1016.4 |
| 20260507044003 | 56 | 59 | 0.0 | 2.6 | 0.00 | 0.30 | 0.18 | 96 | 1016.3 |
| 20260507043004 | 56 | 0 | 0.0 | 0.0 | 0.00 | 0.30 | 0.18 | 96 | 1016.6 |
| 20260507042004 | 56 | 75 | 0.0 | 0.9 | 0.00 | 0.30 | 0.18 | 96 | 1016.6 |
| 20260507041004 | 56 | 77 | 0.9 | 1.7 | 0.00 | 0.30 | 0.18 | 96 | 1016.4 |
| 20260507040004 | 56 | 301 | 0.9 | 2.6 | 0.00 | 0.30 | 0.18 | 96 | 1016.3 |
| 20260507035213 | 56 | 281 | 0.9 | 2.6 | 0.00 | 0.30 | 0.18 | 96 | 1016.3 |
| 20260507034004 | 56 | 113 | 0.0 | 1.7 | 0.01 | 0.30 | 0.18 | 96 | 1016.2 |
| 20260507033004 | 56 | 64 | 0.9 | 1.7 | 0.01 | 0.30 | 0.18 | 96 | 1016.3 |
| 20260507032003 | 56 | 77 | 0.0 | 2.6 | 0.01 | 0.30 | 0.18 | 96 | 1016.2 |
| 20260507031003 | 56 | 82 | 0.0 | 0.9 | 0.01 | 0.30 | 0.18 | 96 | 1016.2 |
| 20260507030003 | 56 | 116 | 1.7 | 3.5 | 0.02 | 0.30 | 0.18 | 96 | 1016.3 |
| 20260507025214 | 56 | 127 | 1.7 | 3.5 | 0.02 | 0.30 | 0.18 | 96 | 1016.2 |
| 20260507024003 | 56 | 109 | 2.6 | 5.2 | 0.01 | 0.29 | 0.17 | 96 | 1016.5 |
| 20260507023003 | 56 | 114 | 2.6 | 6.1 | 0.01 | 0.29 | 0.17 | 95 | 1016.4 |
| 20260507022003 | 56 | 133 | 2.6 | 5.2 | 0.02 | 0.29 | 0.17 | 95 | 1016.3 |
| 20260507021003 | 56 | 109 | 2.6 | 6.1 | 0.02 | 0.29 | 0.17 | 95 | 1016.3 |
| 20260507020214 | 56 | 82 | 1.7 | 4.3 | 0.01 | 0.28 | 0.17 | 95 | 1016.3 |
| 20260507015008 | 56 | 53 | 1.7 | 2.6 | 0.02 | 0.28 | 0.17 | 95 | 1016.4 |
| 20260507014003 | 56 | 51 | 1.7 | 2.6 | 0.02 | 0.28 | 0.17 | 95 | 1016.3 |
| 20260507013003 | 56 | 35 | 0.9 | 2.6 | 0.04 | 0.28 | 0.17 | 95 | 1016.3 |
| 20260507012212 | 56 | 53 | 0.9 | 1.7 | 0.07 | 0.28 | 0.16 | 95 | 1016.3 |
| 20260507010004 | 56 | 246 | 0.0 | 0.9 | 0.13 | 0.28 | 0.16 | 95 | 1016.4 |
| 20260507005003 | 56 | 243 | 0.9 | 1.7 | 0.15 | 0.28 | 0.15 | 95 | 1016.5 |
| 20260507004003 | 56 | 242 | 1.7 | 4.3 | 0.14 | 0.28 | 0.14 | 94 | 1016.5 |
| 20260507003004 | 57 | 256 | 3.5 | 5.2 | 0.13 | 0.26 | 0.13 | 93 | 1016.6 |
| 20260507002004 | 57 | 260 | 2.6 | 6.1 | 0.08 | 0.21 | 0.08 | 92 | 1016.4 |
| 20260507001003 | 58 | 257 | 3.5 | 5.2 | 0.05 | 0.18 | 0.05 | 91 | 1016.4 |
| 20260507000004 | 58 | 254 | 3.5 | 7.0 | 0.02 | 0.16 | 0.02 | 90 | 1016.4 |
| 20260506235003 | 58 | 256 | 2.6 | 4.3 | 0.00 | 0.13 | 0.00 | 89 | 1016.4 |
| 20260506234004 | 59 | 249 | 2.6 | 6.1 | 0.00 | 0.13 | 0.00 | 89 | 1016.4 |
| 20260506233004 | 59 | 256 | 2.6 | 5.2 | 0.00 | 0.13 | 0.00 | 88 | 1016.2 |
| 20260506232003 | 59 | 227 | 1.7 | 6.1 | 0.00 | 0.13 | 0.00 | 86 | 1016.2 |
| 20260506230004 | 59 | 248 | 1.7 | 3.5 | 0.00 | 0.13 | 0.00 | 88 | 1016.1 |
| 20260506225216 | 59 | 241 | 0.9 | 3.5 | 0.01 | 0.13 | 0.00 | 88 | 1016.0 |
| 20260506224003 | 59 | 238 | 1.7 | 3.5 | 0.02 | 0.13 | 0.00 | 90 | 1016.0 |
| 20260506223003 | 59 | 260 | 0.9 | 2.6 | 0.02 | 0.13 | 0.00 | 89 | 1016.2 |
| 20260506222003 | 60 | 253 | 0.0 | 2.6 | 0.03 | 0.13 | 0.00 | 87 | 1016.2 |
| 20260506221215 | 60 | 157 | 1.7 | 3.5 | 0.04 | 0.13 | 0.00 | 85 | 1016.1 |
| 20260506220006 | 60 | 146 | 2.6 | 5.2 | 0.05 | 0.13 | 0.00 | 84 | 1016.0 |
| 20260506215217 | 60 | 152 | 2.6 | 6.1 | 0.05 | 0.13 | 0.13 | 84 | 1016.2 |
| 20260506214003 | 60 | 154 | 1.7 | 5.2 | 0.04 | 0.12 | 0.12 | 85 | 1016.3 |
| 20260506213003 | 60 | 215 | 1.7 | 4.3 | 0.04 | 0.11 | 0.11 | 86 | 1016.5 |
| 20260506212003 | 60 | 257 | 1.7 | 3.5 | 0.03 | 0.10 | 0.10 | 86 | 1016.5 |
| 20260506211004 | 61 | 207 | 2.6 | 4.3 | 0.02 | 0.09 | 0.09 | 83 | 1016.5 |
| 20260506210004 | 61 | 160 | 2.6 | 5.2 | 0.02 | 0.09 | 0.09 | 81 | 1016.5 |
| 20260506205003 | 62 | 151 | 2.6 | 6.1 | 0.01 | 0.08 | 0.08 | 81 | 1016.5 |
| 20260506204003 | 62 | 137 | 3.5 | 7.0 | 0.01 | 0.08 | 0.08 | 80 | 1016.6 |
| 20260506203004 | 62 | 150 | 3.5 | 6.1 | 0.00 | 0.07 | 0.07 | 79 | 1016.5 |
| 20260506202215 | 62 | 146 | 2.6 | 6.1 | 0.00 | 0.07 | 0.07 | 78 | 1016.6 |
| 20260506201003 | 62 | 145 | 3.5 | 6.1 | 0.00 | 0.07 | 0.07 | 78 | 1016.4 |
| 20260506200004 | 62 | 135 | 2.6 | 6.1 | 0.00 | 0.07 | 0.07 | 78 | 1016.4 |
| 20260506195003 | 62 | 126 | 1.7 | 4.3 | 0.00 | 0.07 | 0.07 | 79 | 1016.3 |
| 20260506194004 | 62 | 120 | 1.7 | 3.5 | 0.00 | 0.07 | 0.07 | 81 | 1016.3 |
| 20260506193215 | 62 | 110 | 0.9 | 5.2 | 0.00 | 0.07 | 0.07 | 84 | 1016.3 |
| 20260506192004 | 61 | 89 | 0.9 | 3.5 | 0.00 | 0.07 | 0.07 | 88 | 1016.2 |
| 20260506191003 | 61 | 112 | 0.9 | 2.6 | 0.00 | 0.07 | 0.07 | 89 | 1016.3 |
| 20260506190004 | 60 | 70 | 0.0 | 2.6 | 0.00 | 0.07 | 0.07 | 91 | 1016.1 |
| 20260506185004 | 61 | 82 | 0.0 | 0.9 | 0.00 | 0.07 | 0.07 | 89 | 1016.1 |
| 20260506184004 | 61 | 129 | 0.0 | 0.9 | 0.02 | 0.07 | 0.07 | 89 | 1015.9 |
| 20260506183004 | 61 | 127 | 0.0 | 0.9 | 0.02 | 0.07 | 0.07 | 89 | 1015.8 |
| 20260506182216 | 61 | 253 | 0.9 | 1.7 | 0.02 | 0.07 | 0.07 | 88 | 1015.8 |
| 20260506181003 | 61 | 241 | 1.7 | 3.5 | 0.02 | 0.07 | 0.07 | 87 | 1015.8 |
| 20260506180005 | 61 | 233 | 2.6 | 4.3 | 0.02 | 0.07 | 0.07 | 86 | 1015.8 |
| 20260506175004 | 62 | 230 | 2.6 | 7.0 | 0.02 | 0.07 | 0.07 | 85 | 1015.6 |
| 20260506174004 | 63 | 214 | 3.5 | 6.1 | 0.01 | 0.06 | 0.06 | 82 | 1015.6 |
| 20260506173003 | 63 | 224 | 4.3 | 10.4 | 0.00 | 0.05 | 0.05 | 81 | 1015.5 |
| 20260506172003 | 63 | 228 | 3.5 | 7.8 | 0.00 | 0.05 | 0.05 | 81 | 1015.4 |
| 20260506171003 | 63 | 226 | 2.6 | 10.4 | 0.00 | 0.05 | 0.05 | 81 | 1015.5 |
| 20260506170214 | 63 | 232 | 1.7 | 6.1 | 0.00 | 0.05 | 0.05 | 81 | 1015.4 |
| 20260506165004 | 63 | 228 | 2.6 | 4.3 | 0.00 | 0.05 | 0.05 | 82 | 1015.6 |
| 20260506164003 | 63 | 231 | 3.5 | 7.8 | 0.00 | 0.05 | 0.05 | 80 | 1015.5 |
| 20260506163003 | 65 | 221 | 2.6 | 8.7 | 0.00 | 0.05 | 0.05 | 77 | 1015.6 |
| 20260506162004 | 66 | 175 | 2.6 | 9.6 | 0.00 | 0.05 | 0.05 | 72 | 1015.4 |
| 20260506161004 | 66 | 173 | 1.7 | 5.2 | 0.00 | 0.05 | 0.05 | 71 | 1015.4 |
| 20260506160003 | 66 | 200 | 2.6 | 7.0 | 0.00 | 0.05 | 0.05 | 71 | 1015.5 |
| 20260506155216 | 66 | 213 | 3.5 | 7.8 | 0.00 | 0.05 | 0.05 | 71 | 1015.6 |
| 20260506154003 | 66 | 229 | 2.6 | 9.6 | 0.00 | 0.05 | 0.05 | 70 | 1015.5 |
| 20260506153004 | 66 | 224 | 3.5 | 7.8 | 0.00 | 0.05 | 0.05 | 69 | 1015.6 |
| 20260506152213 | 66 | 227 | 3.5 | 9.6 | 0.00 | 0.05 | 0.05 | 69 | 1015.5 |
| 20260506151004 | 67 | 229 | 4.3 | 11.3 | 0.00 | 0.05 | 0.05 | 70 | 1015.4 |
| 20260506150004 | 67 | 217 | 4.3 | 10.4 | 0.00 | 0.05 | 0.05 | 69 | 1015.5 |
| 20260506145003 | 67 | 219 | 4.3 | 9.6 | 0.00 | 0.05 | 0.05 | 70 | 1015.6 |
| 20260506144004 | 67 | 229 | 5.2 | 13.9 | 0.00 | 0.05 | 0.05 | 70 | 1015.5 |
| 20260506143213 | 67 | 229 | 5.2 | 13.0 | 0.00 | 0.05 | 0.05 | 69 | 1015.6 |
| 20260506142003 | 67 | 227 | 4.3 | 15.6 | 0.00 | 0.05 | 0.05 | 68 | 1015.6 |
| 20260506141003 | 68 | 232 | 4.3 | 9.6 | 0.00 | 0.05 | 0.05 | 68 | 1015.5 |
| 20260506140003 | 68 | 231 | 4.3 | 13.0 | 0.00 | 0.05 | 0.05 | 68 | 1015.5 |
| 20260506135004 | 68 | 232 | 4.3 | 12.2 | 0.00 | 0.05 | 0.05 | 66 | 1015.4 |
| 20260506134003 | 69 | 225 | 5.2 | 12.2 | 0.00 | 0.05 | 0.05 | 66 | 1015.5 |
| 20260506133004 | 69 | 231 | 4.3 | 12.2 | 0.00 | 0.05 | 0.05 | 64 | 1015.5 |
| 20260506132003 | 69 | 233 | 4.3 | 9.6 | 0.00 | 0.05 | 0.05 | 64 | 1015.5 |
| 20260506131003 | 70 | 231 | 4.3 | 10.4 | 0.00 | 0.05 | 0.05 | 63 | 1015.7 |
| 20260506130004 | 70 | 231 | 3.5 | 10.4 | 0.00 | 0.05 | 0.05 | 62 | 1015.6 |
| 20260506125003 | 70 | 221 | 4.3 | 10.4 | 0.00 | 0.05 | 0.05 | 63 | 1015.7 |
| 20260506124004 | 71 | 228 | 4.3 | 11.3 | 0.00 | 0.05 | 0.05 | 59 | 1015.8 |
| 20260506123003 | 71 | 232 | 4.3 | 10.4 | 0.00 | 0.05 | 0.05 | 58 | 1015.8 |
| 20260506122003 | 72 | 210 | 3.5 | 11.3 | 0.00 | 0.05 | 0.05 | 56 | 1015.8 |
| 20260506121004 | 72 | 173 | 3.5 | 10.4 | 0.00 | 0.05 | 0.05 | 55 | 1015.7 |
| 20260506120217 | 72 | 169 | 3.5 | 9.6 | 0.00 | 0.05 | 0.05 | 53 | 1015.8 |
| 20260506115003 | 72 | 216 | 4.3 | 10.4 | 0.00 | 0.05 | 0.05 | 53 | 1016.0 |
| 20260506114003 | 71 | 214 | 4.3 | 11.3 | 0.00 | 0.05 | 0.05 | 53 | 1016.0 |
| 20260506113215 | 71 | 217 | 4.3 | 11.3 | 0.00 | 0.05 | 0.05 | 53 | 1015.9 |
| 20260506112004 | 71 | 230 | 5.2 | 12.2 | 0.00 | 0.05 | 0.05 | 55 | 1015.9 |
| 20260506111003 | 71 | 220 | 3.5 | 12.2 | 0.00 | 0.05 | 0.05 | 55 | 1015.8 |
| 20260506110004 | 71 | 158 | 4.3 | 14.8 | 0.00 | 0.05 | 0.05 | 57 | 1016.0 |
| 20260506105003 | 70 | 153 | 3.5 | 9.6 | 0.00 | 0.05 | 0.05 | 61 | 1016.0 |
| 20260506104004 | 70 | 175 | 5.2 | 13.9 | 0.00 | 0.05 | 0.05 | 63 | 1016.1 |
| 20260506103004 | 69 | 151 | 5.2 | 12.2 | 0.00 | 0.05 | 0.05 | 65 | 1016.1 |
| 20260506102004 | 68 | 147 | 6.1 | 11.3 | 0.00 | 0.05 | 0.05 | 67 | 1016.0 |
| 20260506101004 | 67 | 143 | 7.0 | 13.0 | 0.00 | 0.05 | 0.05 | 69 | 1016.2 |
| 20260506100213 | 67 | 141 | 7.0 | 12.2 | 0.00 | 0.05 | 0.05 | 69 | 1016.2 |
| 20260506095004 | 67 | 144 | 7.8 | 16.5 | 0.00 | 0.05 | 0.05 | 70 | 1016.1 |
| 20260506094004 | 66 | 145 | 6.1 | 13.9 | 0.00 | 0.05 | 0.05 | 71 | 1016.0 |
| 20260506093003 | 66 | 147 | 4.3 | 11.3 | 0.00 | 0.05 | 0.05 | 72 | 1016.0 |
| 20260506092003 | 65 | 139 | 4.3 | 9.6 | 0.00 | 0.05 | 0.05 | 74 | 1016.0 |
| 20260506091003 | 64 | 138 | 5.2 | 9.6 | 0.00 | 0.05 | 0.05 | 76 | 1015.9 |
| 20260506090004 | 64 | 140 | 5.2 | 12.2 | 0.00 | 0.05 | 0.05 | 76 | 1015.8 |
| 20260506085003 | 64 | 142 | 4.3 | 10.4 | 0.00 | 0.05 | 0.05 | 74 | 1015.7 |
| 20260506084216 | 65 | 141 | 4.3 | 9.6 | 0.00 | 0.05 | 0.05 | 75 | 1015.8 |